CW2235 Kristiansand NO current weather conditions

sailwx.info

Wind from 357 at 7 knots gusting 14

Air temperature 16.1° C
Dewpoint 15.8° C

Last reported at 2020-Aug-05 13:05 UTC.
Time now 2020-Aug-05 14:00 UTC

Location: N 58°05' E 008°01'.
View on Google Maps.

See reports from other nearby stations

  
Tides and Currents Weather Stations Pressure Air Temp Water Temp Dewpoint Dewpoint Depression Visibility Wind Speed Wind Dir Waves Ship Positions
date/time (UTC)wind fromknots sea level pressurealtimeterstation pressurevisibilityair tempwater tempwave heightnotes
2020-Aug-05 13:05 357 7 gusting 14 16.1
2020-Aug-05 13:00 021 7 gusting 11 16.1
2020-Aug-05 12:55 020 8 gusting 17 16.1
2020-Aug-05 12:50 013 5 gusting 12 16.1
2020-Aug-05 12:45 16.1
2020-Aug-05 12:40 354 10 gusting 14 16.1
2020-Aug-05 12:35 008 9 gusting 15 16.1
2020-Aug-05 12:30 309 6 gusting 13 16.1
2020-Aug-05 12:25 015 6 gusting 13 16.1
2020-Aug-05 12:20 333 7 gusting 14 16.1
2020-Aug-05 12:15 018 8 gusting 14 16.1
2020-Aug-05 12:10 027 6 gusting 13 16.1
2020-Aug-05 12:05 008 6 gusting 13 16.1
2020-Aug-05 12:00 019 6 gusting 14 16.1
2020-Aug-05 11:55 001 6 gusting 14 16.1
2020-Aug-05 11:50 018 4 gusting 10 16.1
2020-Aug-05 11:45 019 7 gusting 13 16.1
2020-Aug-05 11:40 020 6 gusting 13 16.1
2020-Aug-05 11:35 023 6 gusting 12 16.1
2020-Aug-05 11:30 020 6 gusting 10 16.1
2020-Aug-05 11:25 259 5 gusting 13 16.1
2020-Aug-05 11:20 355 6 gusting 11 16.1
2020-Aug-05 11:15 014 6 gusting 11 16.1
2020-Aug-05 11:10 026 8 gusting 15 16.1
2020-Aug-05 11:05 020 6 gusting 13 16.1
2020-Aug-05 11:00 021 6 gusting 14 16.1
2020-Aug-05 10:55 016 8 gusting 17 16.1
2020-Aug-05 10:50 006 9 gusting 15 16.1
2020-Aug-05 10:45 028 10 gusting 18 16.1
2020-Aug-05 10:40 013 11 gusting 17 16.1
2020-Aug-05 10:35 023 8 gusting 12 16.1
2020-Aug-05 10:30 030 10 gusting 14 15.6
2020-Aug-05 10:25 355 7 gusting 17 16.1
2020-Aug-05 10:20 027 7 gusting 13 16.1
2020-Aug-05 10:15 029 10 gusting 15 16.1
2020-Aug-05 10:10 030 10 gusting 14 16.1
2020-Aug-05 10:05 030 6 gusting 14 16.1
2020-Aug-05 10:00 026 7 gusting 17 16.1
2020-Aug-05 09:55 022 8 gusting 15 16.1
2020-Aug-05 09:50 032 10 gusting 18 16.1
2020-Aug-05 09:45 029 11 gusting 17 15.6
2020-Aug-05 09:40 025 11 gusting 17 15.6
2020-Aug-05 09:35 036 11 gusting 17 15.6
2020-Aug-05 09:30 027 10 gusting 17 15.6
2020-Aug-05 09:25 044 7 gusting 15 15.6
2020-Aug-05 09:20 029 12 gusting 17 15.6
2020-Aug-05 09:15 032 10 gusting 17 15.6
2020-Aug-05 09:10 031 10 gusting 17 15.6
2020-Aug-05 09:05 030 10 gusting 17 15.6
2020-Aug-05 09:00 032 10 gusting 17 15.6
2020-Aug-05 08:55 026 11 gusting 17 15.6
2020-Aug-05 08:50 033 11 gusting 17 15.6
2020-Aug-05 08:45 033 11 gusting 19 15.6
2020-Aug-05 08:40 040 10 gusting 18 15.6
2020-Aug-05 08:35 030 11 gusting 19 15.6
2020-Aug-05 08:30 033 13 gusting 19 15.6
2020-Aug-05 08:25 029 10 gusting 19 15.6
2020-Aug-05 08:20 036 13 gusting 19 15.6
2020-Aug-05 08:15 026 10 gusting 18 15.6
2020-Aug-05 08:10 033 10 gusting 19 15.6
2020-Aug-05 08:05 029 12 gusting 20 15.6
2020-Aug-05 08:00 036 11 gusting 20 15.6
2020-Aug-05 07:55 032 12 gusting 19 15.6
2020-Aug-05 07:50 013 12 gusting 22 15.6
2020-Aug-05 07:45 031 11 gusting 22 15.6
2020-Aug-05 07:40 033 11 gusting 22 15.6
2020-Aug-05 07:35 026 12 gusting 19 16.1
2020-Aug-05 07:30 026 12 gusting 19 16.1
2020-Aug-05 07:25 031 12 gusting 19 16.1
2020-Aug-05 07:20 032 12 gusting 18 16.1
2020-Aug-05 07:15 031 13 gusting 20 15.6
2020-Aug-05 07:10 036 13 gusting 19 15.6
2020-Aug-05 07:05 032 13 gusting 22 16.1
2020-Aug-05 07:00 031 14 gusting 19 16.1
2020-Aug-05 06:55 036 14 gusting 19 16.1
2020-Aug-05 06:50 044 13 gusting 24 16.1
2020-Aug-05 06:45 058 13 gusting 22 16.1
2020-Aug-05 06:40 030 13 gusting 21 15.6
2020-Aug-05 06:35 028 11 gusting 21 15.6
2020-Aug-05 06:30 016 13 gusting 20 15.6
2020-Aug-05 06:25 031 13 gusting 22 15.6
2020-Aug-05 06:20 031 13 gusting 22 15.6
2020-Aug-05 06:15 035 13 gusting 21 15.6
2020-Aug-05 06:10 025 13 gusting 20 15.6
2020-Aug-05 06:05 015 13 gusting 22 15.6
2020-Aug-05 06:00 027 13 gusting 18 15.6
2020-Aug-05 05:55 040 13 gusting 22 15.0
2020-Aug-05 05:50 028 13 gusting 21 15.0
2020-Aug-05 05:45 031 13 gusting 22 15.0
2020-Aug-05 05:40 031 13 gusting 21 15.0
2020-Aug-05 05:35 054 12 gusting 22 15.0
2020-Aug-05 05:30 030 16 gusting 25 15.0
2020-Aug-05 05:25 065 13 gusting 22 15.0
2020-Aug-05 05:20 105 13 gusting 21 15.0
2020-Aug-05 05:15 082 12 gusting 21 15.0
2020-Aug-05 05:10 188 15 gusting 22 15.0
2020-Aug-05 05:05 192 14 gusting 22 14.4
2020-Aug-05 04:55 141 16 gusting 22 14.4
2020-Aug-05 04:50 185 14 gusting 21 14.4
2020-Aug-05 04:45 150 15 gusting 25 14.4
2020-Aug-05 04:40 177 18 gusting 25 14.4
2020-Aug-05 04:35 081 17 gusting 25 14.4
2020-Aug-05 04:30 050 17 gusting 24 14.4
2020-Aug-05 04:25 107 16 gusting 24 14.4
2020-Aug-05 04:20 179 16 gusting 27 14.4
2020-Aug-05 04:15 192 17 gusting 26 14.4
2020-Aug-05 04:10 114 14 gusting 26 14.4
2020-Aug-05 04:05 170 17 gusting 28 14.4
2020-Aug-05 04:00 168 17 gusting 24 14.4
2020-Aug-05 03:55 029 17 gusting 25 14.4
2020-Aug-05 03:50 178 16 gusting 24 14.4
2020-Aug-05 03:45 067 15 gusting 22 14.4
2020-Aug-05 03:40 146 14 gusting 28 14.4
2020-Aug-05 03:35 055 19 gusting 30 14.4
2020-Aug-05 03:30 062 13 gusting 30 14.4
2020-Aug-05 03:25 050 17 gusting 24 14.4
2020-Aug-05 03:20 166 17 gusting 30 14.4
2020-Aug-05 03:15 155 15 gusting 25 14.4
2020-Aug-05 03:10 188 14 gusting 24 14.4
2020-Aug-05 03:05 051 14 gusting 28 14.4
2020-Aug-05 03:00 033 17 gusting 28 14.4
2020-Aug-05 02:55 037 16 gusting 27 14.4
2020-Aug-05 02:50 046 16 gusting 26 14.4
2020-Aug-05 02:45 036 18 gusting 26 14.4
2020-Aug-05 02:40 077 15 gusting 22 13.9
2020-Aug-05 02:30 047 14 gusting 21 13.9
2020-Aug-05 02:25 031 13 gusting 25 13.9
2020-Aug-05 02:20 032 11 gusting 24 13.9
2020-Aug-05 02:15 167 13 gusting 19 13.9
2020-Aug-05 02:10 036 15 gusting 22 13.9
2020-Aug-05 02:05 040 14 gusting 21 13.9
2020-Aug-05 02:00 045 13 gusting 21 13.9
2020-Aug-05 01:55 042 11 gusting 21 13.9
2020-Aug-05 01:50 100 12 gusting 21 13.9
2020-Aug-05 01:45 035 12 gusting 21 13.9
2020-Aug-05 01:40 030 13 gusting 22 13.9
2020-Aug-05 01:35 030 11 gusting 22 13.9
2020-Aug-05 01:30 034 17 gusting 26 13.9
2020-Aug-05 01:25 035 12 gusting 22 13.9
2020-Aug-05 01:20 033 15 gusting 27 13.9
2020-Aug-05 01:15 035 10 gusting 17 13.9
2020-Aug-05 01:10 032 11 gusting 19 13.9
2020-Aug-05 01:05 099 12 gusting 18 13.9
2020-Aug-05 01:00 156 11 gusting 18 13.9
2020-Aug-05 00:55 031 12 gusting 19 13.9
2020-Aug-05 00:50 033 10 gusting 15 13.9
2020-Aug-05 00:45 030 11 gusting 20 13.9
2020-Aug-05 00:40 029 12 gusting 17 13.9
2020-Aug-05 00:35 029 10 gusting 15 13.3
2020-Aug-05 00:30 041 7 gusting 15 13.3
2020-Aug-05 00:25 322 3 gusting 7 13.3
2020-Aug-05 00:20 025 3 gusting 7 13.3
2020-Aug-05 00:15 030 3 gusting 6 13.3
2020-Aug-05 00:10 358 4 gusting 10 13.3
2020-Aug-05 00:05 353 5 gusting 10 13.3
2020-Aug-05 00:00 310 3 gusting 11 13.3
2020-Aug-04 23:55 005 6 gusting 11 13.3
2020-Aug-04 23:50 004 5 gusting 11 13.3
2020-Aug-04 23:45 015 6 gusting 13 13.3
2020-Aug-04 23:40 027 5 gusting 13 13.3
2020-Aug-04 23:35 017 6 gusting 13 13.3
2020-Aug-04 23:25 013 11 gusting 14 13.3
2020-Aug-04 23:20 009 5 gusting 11 13.9
2020-Aug-04 23:10 030 5 gusting 11 13.9
2020-Aug-04 23:05 029 7 gusting 11 13.9
2020-Aug-04 23:00 023 6 gusting 10 13.9
2020-Aug-04 22:55 273 4 gusting 12 14.4
2020-Aug-04 22:50 022 6 gusting 11 14.4
2020-Aug-04 22:45 030 8 gusting 13 14.4
2020-Aug-04 22:40 030 11 gusting 18 15.0
2020-Aug-04 22:35 037 10 gusting 19 15.0
2020-Aug-04 22:30 030 8 gusting 14 15.0
2020-Aug-04 22:25 031 7 gusting 14 15.6
2020-Aug-04 22:20 044 7 gusting 17 15.6
2020-Aug-04 22:15 032 8 gusting 17 15.6
2020-Aug-04 22:10 030 11 gusting 17 15.6
2020-Aug-04 22:05 030 8 gusting 18 15.6
2020-Aug-04 22:00 030 10 gusting 18 15.0
2020-Aug-04 21:55 031 7 gusting 14 15.0
2020-Aug-04 21:50 059 7 gusting 11 15.0
2020-Aug-04 21:45 030 10 gusting 15 15.0
2020-Aug-04 21:40 025 7 gusting 14 15.0
2020-Aug-04 21:35 016 6 gusting 12 15.0
2020-Aug-04 21:30 026 5 gusting 8 15.0
2020-Aug-04 21:25 021 5 gusting 10 15.0
2020-Aug-04 21:20 026 6 gusting 10 15.0
2020-Aug-04 21:10 023 6 gusting 11 15.0
2020-Aug-04 21:05 011 6 gusting 8 15.0
2020-Aug-04 21:00 020 4 gusting 8 15.0
2020-Aug-04 20:55 014 5 gusting 8 15.0
2020-Aug-04 20:50 019 3 gusting 7 15.0
2020-Aug-04 20:45 324 4 gusting 8 15.0
2020-Aug-04 20:40 355 5 gusting 10 15.0
2020-Aug-04 20:35 028 1 gusting 8 15.0
2020-Aug-04 20:30 308 4 gusting 7 15.0
2020-Aug-04 20:25 325 4 gusting 10 15.0
2020-Aug-04 20:20 006 4 gusting 10 15.0
2020-Aug-04 20:15 305 4 gusting 10 15.0
2020-Aug-04 20:10 286 4 gusting 10 14.4
2020-Aug-04 20:05 291 4 gusting 8 14.4
2020-Aug-04 19:55 291 4 gusting 7 14.4
2020-Aug-04 19:50 030 5 gusting 10 14.4
2020-Aug-04 19:45 002 4 gusting 10 14.4
2020-Aug-04 19:40 345 3 gusting 8 14.4
2020-Aug-04 19:35 343 2 gusting 7 14.4
2020-Aug-04 19:25 275 4 gusting 10 14.4
2020-Aug-04 19:20 322 2 gusting 6 14.4
2020-Aug-04 19:15 013 2 gusting 7 14.4
2020-Aug-04 19:10 337 2 gusting 10 14.4
2020-Aug-04 19:05 351 4 gusting 8 14.4
2020-Aug-04 18:55 344 5 gusting 11 14.4
2020-Aug-04 18:50 359 1 gusting 5 15.0
2020-Aug-04 18:45 286 3 gusting 10 15.0
2020-Aug-04 18:40 340 3 gusting 12 15.0
2020-Aug-04 18:35 277 2 gusting 10 15.0
2020-Aug-04 18:30 309 4 gusting 10 15.0
2020-Aug-04 18:25 322 5 gusting 10 15.0
2020-Aug-04 18:20 275 1 gusting 10 15.0
2020-Aug-04 18:15 293 3 gusting 6 15.0
2020-Aug-04 18:10 316 5 gusting 11 15.0
2020-Aug-04 18:05 317 5 gusting 11 15.0
2020-Aug-04 18:00 350 6 gusting 12 15.0
2020-Aug-04 17:55 337 4 gusting 10 15.6
2020-Aug-04 17:50 354 5 gusting 13 15.6
2020-Aug-04 17:45 337 6 gusting 13 15.6
2020-Aug-04 17:40 009 5 gusting 12 15.6
2020-Aug-04 17:35 305 4 gusting 15 15.6
2020-Aug-04 17:30 321 2 gusting 11 15.6
2020-Aug-04 17:25 310 1 gusting 11 15.6
2020-Aug-04 17:20 338 5 gusting 11 15.6
2020-Aug-04 17:15 348 6 gusting 12 15.6
2020-Aug-04 17:10 321 4 gusting 11 15.6
2020-Aug-04 17:05 349 7 gusting 13 15.6
2020-Aug-04 17:00 359 4 gusting 12 15.6
2020-Aug-04 16:55 333 5 gusting 13 15.6
2020-Aug-04 16:50 303 6 gusting 14 16.1
2020-Aug-04 16:45 318 6 gusting 13 16.1
2020-Aug-04 16:40 020 6 gusting 10 16.1
2020-Aug-04 16:35 293 4 gusting 12 16.1
2020-Aug-04 16:30 008 6 gusting 15 16.1
2020-Aug-04 16:25 346 5 gusting 13 16.1
2020-Aug-04 16:20 030 5 gusting 13 16.1
2020-Aug-04 16:15 025 4 gusting 11 16.1
2020-Aug-04 16:10 012 6 gusting 15 16.1
2020-Aug-04 16:05 319 7 gusting 15 16.1
2020-Aug-04 16:00 301 5 gusting 17 16.1
2020-Aug-04 15:55 004 7 gusting 14 16.1
2020-Aug-04 15:50 338 5 gusting 15 16.1
2020-Aug-04 15:45 354 7 gusting 15 16.7
2020-Aug-04 15:40 337 6 gusting 13 16.1
2020-Aug-04 15:35 015 7 gusting 17 16.1
2020-Aug-04 15:25 358 7 gusting 15 16.7
2020-Aug-04 15:20 006 6 gusting 13 16.7
2020-Aug-04 15:15 019 6 gusting 17 16.7
2020-Aug-04 15:10 011 6 gusting 13 16.7
2020-Aug-04 15:05 300 6 gusting 14 16.7
2020-Aug-04 14:55 015 6 gusting 15 16.7
2020-Aug-04 14:50 005 6 gusting 17 16.7
2020-Aug-04 14:45 358 6 gusting 15 16.1
2020-Aug-04 14:40 348 7 gusting 14 16.1
2020-Aug-04 14:35 013 10 gusting 17 16.1
2020-Aug-04 14:30 017 8 gusting 17 16.1
2020-Aug-04 14:25 354 11 gusting 19 16.1
2020-Aug-04 14:20 347 8 gusting 19 16.1
2020-Aug-04 14:15 023 7 gusting 14 16.7
2020-Aug-04 14:10 351 5 gusting 14 16.7
2020-Aug-04 14:05 341 7 gusting 17 16.7
2020-Aug-04 13:55 012 6 gusting 14 16.7
2020-Aug-04 13:50 354 10 gusting 20 16.1
2020-Aug-04 13:45 329 9 gusting 20 16.1
2020-Aug-04 13:40 004 12 gusting 20 16.7
2020-Aug-04 13:35 019 8 gusting 15 16.7
2020-Aug-04 13:30 340 4 gusting 15 16.7
2020-Aug-04 13:25 020 6 gusting 14 16.7
2020-Aug-04 13:20 16.7
2020-Aug-04 13:15 006 6 gusting 13 17.2
2020-Aug-04 13:10 310 7 gusting 17 16.7
2020-Aug-04 13:05 007 6 gusting 14 17.2
2020-Aug-04 13:00 359 7 gusting 17 16.7
2020-Aug-04 12:55 315 11 gusting 19 16.7
2020-Aug-04 12:50 003 7 gusting 19 16.7
2020-Aug-04 12:45 326 9 gusting 19 16.7
2020-Aug-04 12:40 014 8 gusting 19 16.7
2020-Aug-04 12:35 005 7 gusting 17 17.2
2020-Aug-04 12:25 350 6 gusting 14 17.2
2020-Aug-04 12:20 008 6 gusting 10 17.2
2020-Aug-04 12:15 356 9 gusting 17 16.7
2020-Aug-04 12:10 021 8 gusting 19 16.7
2020-Aug-04 12:05 010 8 gusting 17 17.2
2020-Aug-04 12:00 332 8 gusting 14 17.2
2020-Aug-04 11:55 334 9 gusting 15 17.2
2020-Aug-04 11:50 302 9 gusting 18 17.2
2020-Aug-04 11:45 354 8 gusting 17 17.2
2020-Aug-04 11:40 008 8 gusting 15 17.2
2020-Aug-04 11:35 327 6 gusting 12 17.2
2020-Aug-04 11:30 336 6 gusting 13 17.2
2020-Aug-04 11:25 006 5 gusting 13 17.2
2020-Aug-04 11:20 008 7 gusting 17 17.2
2020-Aug-04 11:15 356 7 gusting 18 17.2
2020-Aug-04 11:10 320 8 gusting 17 17.2
2020-Aug-04 11:05 359 7 gusting 15 17.2
2020-Aug-04 11:00 278 8 gusting 17 17.2
2020-Aug-04 10:55 339 7 gusting 17 17.2
2020-Aug-04 10:50 023 8 gusting 18 17.2
2020-Aug-04 10:45 356 7 gusting 14 17.2
2020-Aug-04 10:40 029 7 gusting 15 17.2
2020-Aug-04 10:35 343 8 gusting 15 17.2
2020-Aug-04 10:30 006 6 gusting 13 17.8
2020-Aug-04 10:25 307 10 gusting 19 18.3
2020-Aug-04 10:20 003 2 gusting 7 18.9
2020-Aug-04 10:15 312 2 gusting 10 18.9
2020-Aug-04 10:10 329 4 gusting 10 18.9
2020-Aug-04 10:05 294 2 gusting 7 18.9
2020-Aug-04 10:00 281 2 gusting 10 18.3
2020-Aug-04 09:55 296 4 gusting 8 18.3
2020-Aug-04 09:50 314 2 gusting 8 18.3
2020-Aug-04 09:45 322 3 gusting 11 18.3
2020-Aug-04 09:40 328 4 gusting 8 17.8
2020-Aug-04 09:35 331 4 gusting 8 17.8
2020-Aug-04 09:30 319 4 gusting 8 17.8
2020-Aug-04 09:25 336 4 gusting 10 17.8
2020-Aug-04 09:20 349 3 gusting 6 17.8
2020-Aug-04 09:15 310 4 gusting 8 17.2
2020-Aug-04 09:10 319 4 gusting 10 17.2
2020-Aug-04 09:05 329 6 gusting 11 17.2
2020-Aug-04 09:00 335 6 gusting 10 17.2
2020-Aug-04 08:55 270 2 gusting 10 17.2
2020-Aug-04 08:50 316 4 gusting 12 16.7
2020-Aug-04 08:45 346 6 gusting 12 16.7
2020-Aug-04 08:40 338 6 gusting 8 16.7
2020-Aug-04 08:35 343 5 gusting 10 16.7
2020-Aug-04 08:25 299 6 gusting 11 16.1
2020-Aug-04 08:20 328 6 gusting 10 16.1
2020-Aug-04 08:15 340 4 gusting 8 16.1
2020-Aug-04 08:10 355 5 gusting 10 16.1
2020-Aug-04 08:05 343 6 gusting 10 16.1
2020-Aug-04 08:00 335 5 gusting 11 16.1
2020-Aug-04 07:55 305 3 gusting 10 16.1
2020-Aug-04 07:50 329 4 gusting 8 15.6
2020-Aug-04 07:45 332 4 gusting 10 15.6
2020-Aug-04 07:40 332 5 gusting 8 15.6
2020-Aug-04 07:35 326 4 gusting 7 15.6
2020-Aug-04 07:30 314 3 gusting 8 15.6
2020-Aug-04 07:25 313 4 gusting 10 15.6
2020-Aug-04 07:20 339 4 gusting 10 15.6
2020-Aug-04 07:15 328 5 gusting 10 15.6
2020-Aug-04 07:10 335 3 gusting 7 15.6
2020-Aug-04 07:05 15.6
2020-Aug-04 07:00 338 0 gusting 5 15.0
2020-Aug-04 06:55 357 2 gusting 6 15.0
2020-Aug-04 06:50 352 2 gusting 7 14.4
2020-Aug-04 06:45 335 3 gusting 7 14.4
2020-Aug-04 06:40 339 5 gusting 7 14.4
2020-Aug-04 06:35 346 5 gusting 11 14.4
2020-Aug-04 06:30 344 2 gusting 8 14.4
2020-Aug-04 06:25 346 1 gusting 6 14.4
2020-Aug-04 06:20 323 2 gusting 5 13.9
2020-Aug-04 06:15 325 3 gusting 6 13.9
2020-Aug-04 06:10 325 3 gusting 8 13.9
2020-Aug-04 06:05 333 2 gusting 7 13.9
2020-Aug-04 06:00 341 1 gusting 6 13.9
2020-Aug-04 05:55 312 2 gusting 8 13.3
2020-Aug-04 05:50 329 1 gusting 6 13.3
2020-Aug-04 05:45 290 3 gusting 6 13.3
2020-Aug-04 05:40 313 1 gusting 4 13.3
2020-Aug-04 05:35 319 0 gusting 6 13.3
2020-Aug-04 05:30 343 2 gusting 6 12.8
2020-Aug-04 05:25 306 0 gusting 6 12.8
2020-Aug-04 05:20 313 1 gusting 6 12.8
2020-Aug-04 05:15 302 1 gusting 6 12.8
2020-Aug-04 05:10 316 3 gusting 7 12.8
2020-Aug-04 05:05 311 2 gusting 7 12.2
2020-Aug-04 04:55 331 2 gusting 7 12.2
2020-Aug-04 04:50 329 2 gusting 7 12.2
2020-Aug-04 04:45 342 3 gusting 6 12.2
2020-Aug-04 04:40 326 2 gusting 6 11.7
2020-Aug-04 04:35 330 2 gusting 6 11.7
2020-Aug-04 04:30 326 5 gusting 10 11.7
2020-Aug-04 04:25 319 4 gusting 8 11.7
2020-Aug-04 04:20 313 2 gusting 6 11.7
2020-Aug-04 04:15 337 3 gusting 6 11.7
2020-Aug-04 04:10 317 3 gusting 6 11.7
2020-Aug-04 04:05 327 4 gusting 10 11.7
2020-Aug-04 04:00 326 4 gusting 10 11.7
2020-Aug-04 03:55 327 4 gusting 10 11.7
2020-Aug-04 03:50 330 5 gusting 10 11.1
2020-Aug-04 03:45 335 4 gusting 7 11.1
2020-Aug-04 03:40 325 5 gusting 7 11.1
2020-Aug-04 03:35 340 4 gusting 8 11.1
2020-Aug-04 03:30 317 4 gusting 10 10.6
2020-Aug-04 03:25 325 1 gusting 5 10.6
2020-Aug-04 03:20 343 0 gusting 4 10.6
2020-Aug-04 03:15 308 10.6
2020-Aug-04 03:10 303 11.1
2020-Aug-04 03:05 303 11.1
2020-Aug-04 03:00 299 11.1
2020-Aug-04 02:55 292 11.1
2020-Aug-04 02:50 292 11.1
2020-Aug-04 02:45 318 11.1
2020-Aug-04 02:40 318 11.1
2020-Aug-04 02:35 318 11.1
2020-Aug-04 02:30 322 11.1
2020-Aug-04 02:25 320 0 gusting 2 11.1
2020-Aug-04 02:20 306 11.1
2020-Aug-04 02:15 305 11.7
2020-Aug-04 02:10 305 11.7
2020-Aug-04 02:05 305 0 gusting 2 11.7
2020-Aug-04 02:00 322 11.7
2020-Aug-04 01:55 323 1 gusting 5 11.7
2020-Aug-04 01:50 343 1 gusting 6 11.7
2020-Aug-04 01:45 327 3 gusting 8 11.7
2020-Aug-04 01:40 339 2 gusting 8 11.7
2020-Aug-04 01:35 330 2 gusting 6 11.7
2020-Aug-04 01:30 330 4 gusting 10 11.7
2020-Aug-04 01:25 318 3 gusting 6 12.2
2020-Aug-04 01:20 332 1 gusting 5 12.2
2020-Aug-04 01:15 321 1 gusting 4 12.2
2020-Aug-04 01:10 324 1 gusting 6 12.2
2020-Aug-04 01:05 326 5 gusting 10 12.2
2020-Aug-04 00:55 332 4 gusting 6 12.2
2020-Aug-04 00:50 321 2 gusting 6 12.2
2020-Aug-04 00:40 307 1 gusting 5 12.2
2020-Aug-04 00:35 335 2 gusting 4 12.2
2020-Aug-04 00:25 332 2 gusting 6 12.2
2020-Aug-04 00:20 325 4 gusting 6 12.2
2020-Aug-04 00:15 328 1 gusting 6 12.2
2020-Aug-04 00:10 341 0 gusting 7 12.2
2020-Aug-04 00:05 336 3 gusting 6 12.2
2020-Aug-04 00:00 326 4 gusting 6 12.2
2020-Aug-03 23:55 347 3 gusting 7 12.2
2020-Aug-03 23:50 327 2 gusting 6 12.2
2020-Aug-03 23:45 325 4 gusting 7 12.2
2020-Aug-03 23:40 330 1 gusting 5 12.2
2020-Aug-03 23:35 330 4 gusting 6 12.2
2020-Aug-03 23:30 328 2 gusting 5 12.8
2020-Aug-03 23:25 315 2 gusting 7 12.8
2020-Aug-03 23:20 338 2 gusting 7 12.8
2020-Aug-03 23:15 313 2 gusting 4 12.8
2020-Aug-03 23:10 318 3 gusting 11 12.8
2020-Aug-03 23:05 319 5 gusting 8 12.8
2020-Aug-03 23:00 336 5 gusting 10 12.8
2020-Aug-03 22:55 341 6 gusting 10 12.8
2020-Aug-03 22:50 328 5 gusting 8 12.8
2020-Aug-03 22:45 335 4 gusting 10 12.8
2020-Aug-03 22:40 330 4 gusting 10 12.8
2020-Aug-03 22:35 320 4 gusting 6 12.8
2020-Aug-03 22:25 326 2 gusting 10 12.8
2020-Aug-03 22:20 324 4 gusting 7 12.8
2020-Aug-03 22:15 326 4 gusting 6 12.8
2020-Aug-03 22:10 322 3 gusting 6 12.8
2020-Aug-03 22:05 325 2 gusting 5 12.8
2020-Aug-03 21:55 312 0 gusting 6 12.8
2020-Aug-03 21:50 310 0 gusting 5 12.8
2020-Aug-03 21:45 326 1 gusting 5 13.3
2020-Aug-03 21:40 304 1 gusting 5 13.3
2020-Aug-03 21:35 324 0 gusting 5 13.3
2020-Aug-03 21:30 293 0 gusting 2 13.3
2020-Aug-03 21:25 312 2 gusting 7 13.3
2020-Aug-03 21:20 282 1 gusting 5 13.3
2020-Aug-03 21:10 284 0 gusting 2 13.3
2020-Aug-03 21:05 308 1 gusting 4 13.9
2020-Aug-03 20:55 293 0 gusting 6 13.9
2020-Aug-03 20:50 312 1 gusting 4 13.9
2020-Aug-03 20:45 312 1 gusting 6 13.9
2020-Aug-03 20:40 291 3 gusting 7 13.9
2020-Aug-03 20:35 315 2 gusting 6 13.9
2020-Aug-03 20:30 284 1 gusting 6 14.4
2020-Aug-03 20:25 316 2 gusting 6 14.4
2020-Aug-03 20:20 299 1 gusting 8 14.4
2020-Aug-03 20:15 339 0 gusting 6 14.4
2020-Aug-03 20:10 325 4 gusting 10 14.4
2020-Aug-03 20:05 328 1 gusting 8 15.0
2020-Aug-03 19:55 296 0 gusting 7 15.0
2020-Aug-03 19:50 273 1 gusting 7 15.0
2020-Aug-03 19:40 302 1 gusting 6 15.0
2020-Aug-03 19:35 305 2 gusting 8 15.6
2020-Aug-03 19:30 299 2 gusting 6 15.6
2020-Aug-03 19:25 338 4 gusting 8 15.6
2020-Aug-03 19:20 308 3 gusting 10 15.6
2020-Aug-03 19:10 296 2 gusting 6 16.1
2020-Aug-03 19:05 349 2 gusting 8 16.1
2020-Aug-03 19:00 309 2 gusting 7 16.1
2020-Aug-03 18:55 316 2 gusting 6 16.1
2020-Aug-03 18:50 319 1 gusting 5 16.7
2020-Aug-03 18:40 338 2 gusting 8 16.7
2020-Aug-03 18:35 307 1 gusting 6 16.7
2020-Aug-03 18:30 317 4 gusting 8 17.2
2020-Aug-03 18:25 342 1 gusting 6 17.2
2020-Aug-03 18:20 302 2 gusting 8 17.2
2020-Aug-03 18:15 310 2 gusting 13 17.2
2020-Aug-03 18:10 314 4 gusting 11 17.2
2020-Aug-03 18:05 314 5 gusting 10 17.8
2020-Aug-03 18:00 322 2 gusting 10 17.8
2020-Aug-03 17:55 310 3 gusting 8 17.8
2020-Aug-03 17:50 358 5 gusting 11 17.8
2020-Aug-03 17:45 250 1 gusting 7 18.3
2020-Aug-03 17:40 298 2 gusting 6 18.3
2020-Aug-03 17:35 340 2 gusting 6 18.3
2020-Aug-03 17:25 341 2 gusting 7 18.3
2020-Aug-03 17:20 316 2 gusting 6 18.3
2020-Aug-03 17:15 328 3 gusting 12 18.3
2020-Aug-03 17:10 314 4 gusting 12 18.3
2020-Aug-03 17:05 312 5 gusting 12 18.3
2020-Aug-03 17:00 324 3 gusting 11 18.9
2020-Aug-03 16:55 298 3 gusting 8 18.9
2020-Aug-03 16:50 321 4 gusting 13 18.9
2020-Aug-03 16:45 313 4 gusting 10 18.9
2020-Aug-03 16:40 339 3 gusting 10 19.4
2020-Aug-03 16:35 308 3 gusting 10 19.4
2020-Aug-03 16:30 308 4 gusting 11 19.4
2020-Aug-03 16:25 317 4 gusting 10 19.4
2020-Aug-03 16:20 322 2 gusting 10 19.4
2020-Aug-03 16:15 354 2 gusting 8 19.4
2020-Aug-03 16:10 298 2 gusting 7 19.4
2020-Aug-03 16:05 313 5 gusting 10 19.4
2020-Aug-03 16:00 321 2 gusting 8 19.4
2020-Aug-03 15:55 330 4 gusting 10 19.4
2020-Aug-03 15:50 278 3 gusting 10 20.0
2020-Aug-03 15:45 341 1 gusting 7 19.4
2020-Aug-03 15:40 314 5 gusting 11 19.4
2020-Aug-03 15:35 304 4 gusting 11 19.4
2020-Aug-03 15:30 336 6 gusting 12 19.4
2020-Aug-03 15:25 328 4 gusting 8 19.4
2020-Aug-03 15:20 336 1 gusting 8 18.9
2020-Aug-03 15:15 343 7 gusting 14 19.4
2020-Aug-03 15:10 345 2 gusting 11 18.9
2020-Aug-03 15:05 315 3 gusting 11 18.9
2020-Aug-03 15:00 344 6 gusting 12 18.9
2020-Aug-03 14:55 342 4 gusting 8 18.9
2020-Aug-03 14:50 349 4 gusting 12 18.9
2020-Aug-03 14:45 290 4 gusting 11 19.4
2020-Aug-03 14:40 321 5 gusting 12 20.0
2020-Aug-03 14:35 323 5 gusting 8 20.0
2020-Aug-03 14:30 009 2 gusting 11 20.0
2020-Aug-03 14:25 297 3 gusting 11 20.0
2020-Aug-03 14:20 310 4 gusting 11 20.0
2020-Aug-03 14:15 045 2 gusting 11 19.4
2020-Aug-03 14:10 325 2 gusting 8 19.4
2020-Aug-03 14:05 340 6 gusting 15 19.4
2020-Aug-03 14:00 342 4 gusting 13 18.9